Zurück zum Katalog

STARLINK-3060

AktivKommunikationVLEO
NORAD 49155·PAYLOAD·🇺🇸 United States

Gestartet Sep 14, 2021 von Vandenberg Space Force Base

Loading…

Nächste Überflüge (nächste 24 Stunden)

TLE

AktuellSource: CelesTrak SupGP

Epoche: Sep 14, 2026, 22:08 UTC

1 49155C 21082AB  26257.92270833 -.00014387  00000+0 -12058-2 0  2572
2 49155  70.0003 137.3256 0002818 271.9819 239.8929 14.98335959    18

Verfolge STARLINK-3060 in Echtzeit mit AllMySat

Download on the App Store